Location: *
(40.4270°N, 9.4940°E)
Time: 01:08:12
(UTC+01:00)

Okean 2 - Visible Passes

Search period start: 27 November 2014 00:00
Search period end: 07 December 2014 00:00
Orbit: 569 x 585 km, 82.5° (Epoch: 26 November)

Date Brightness Start Highest point End Pass type
(mag) Time Alt. Az. Time Alt. Az. Time Alt. Az.
27 Nov 5.1 05:59:54 10° N 06:03:47 36° ENE 06:07:37 10° SE visible
27 Nov 6.4 20:00:49 10° SW 20:00:53 10° SW 20:00:53 10° SW visible
28 Nov 4.4 06:03:56 10° N 06:08:01 49° E 06:12:03 10° SSE visible
28 Nov 5.1 18:28:21 10° SSE 18:29:53 19° SE 18:29:53 19° SE visible
28 Nov 6.3 20:05:28 10° SW 20:06:14 14° WSW 20:06:14 14° WSW visible
29 Nov 3.7 06:08:01 10° N 06:12:13 69° E 06:16:21 10° SSE visible
29 Nov 4.2 18:32:07 10° SSE 18:35:13 33° ESE 18:35:13 33° ESE visible
29 Nov 6.4 20:10:18 10° WSW 20:11:34 15° W 20:11:34 15° W visible
30 Nov 3.3 06:12:11 10° N 06:16:23 85° W 06:20:32 10° S visible
30 Nov 3.5 18:36:02 10° SSE 18:40:05 50° E 18:40:30 48° ENE visible
30 Nov 6.5 20:15:28 10° W 20:16:51 13° WNW 20:16:51 13° WNW visible
01 Dec 6.6 04:42:16 10° ENE 04:43:07 11° ENE 04:43:57 10° E visible
01 Dec 3.4 06:16:24 10° NNW 06:20:32 60° W 06:24:37 10° S visible
01 Dec 3.3 18:40:02 10° S 18:44:12 70° E 18:45:43 38° NNE visible
02 Dec 6.4 04:45:08 10° NE 04:47:25 14° ENE 04:49:41 10° ESE visible
02 Dec 3.8 06:20:40 10° NNW 06:24:39 43° W 06:28:34 10° SSW visible
02 Dec 3.4 18:44:09 10° S 18:48:21 84° W 18:50:51 24° N visible
03 Dec 6.0 04:48:40 10° NNE 04:51:41 19° ENE 04:54:40 10° ESE visible
03 Dec 4.2 06:25:01 10° NNW 06:28:44 31° W 06:32:23 10° SSW visible
03 Dec 3.9 18:48:21 10° SSW 18:52:30 60° W 18:55:54 15° N visible
04 Dec 5.5 04:53:24 15° NNE 04:55:55 25° ENE 04:59:23 10° SE visible
04 Dec 4.6 06:29:45 11° NW 06:32:47 23° W 06:36:03 10° SW visible
04 Dec 4.6 18:52:40 10° SSW 18:56:40 43° WNW 19:00:43 10° N visible
05 Dec 5.0 04:58:37 26° NE 05:00:08 34° ENE 05:03:54 10° SE visible
05 Dec 4.9 06:34:59 13° WNW 06:36:48 17° W 06:39:31 10° SW visible
05 Dec 5.2 18:57:06 10° SW 19:00:52 32° WNW 19:04:39 10° NNW visible
06 Dec 4.3 05:03:53 45° ENE 05:04:18 46° E 05:08:17 10° SSE visible
06 Dec 5.2 06:40:15 12° WNW 06:40:48 13° W 06:42:35 10° WSW visible
06 Dec 4.5 17:24:42 10° SE 17:28:09 25° E 17:31:38 10° NE visible
06 Dec 5.7 19:01:39 10° SW 19:05:03 24° WNW 19:08:29 10° NNW visible
